Volver al catálogo

KEPLER

ActivoCienciaMEO
NORAD 34380·PAYLOAD·🇺🇸 United States

Lanzado Mar 7, 2009 desde Cape Canaveral Space Force Station

Loading…

Próximos Pases (próximas 24 horas)

TLE

ObsoletoSource: Space-Track

Época: Mar 8, 2009, 00:25 UTC

1 34380U 09011A   09067.01744983 +.00000005 +00000-0 +00000-0 0  9992
2 34380 028.5514 043.9608 2287689 108.4676 277.6729 07.34265484000068

Sigue KEPLER en tiempo real con AllMySat

Download on the App Store